Date String (YYYY-MM-DD hh:mm:ss) UTC,Instrument flags,Ambient pressure (hPa),Sample flow (lpm),Bypass flow (lpm),Sample temperature (°C),Ambient temperature (°C),ASC tube jacket temperature (°C),LED temperature (°C),Box temperature (°C),Sample RH (%),Span deviation,Mass concentration (μg/m³),Mass concentration (μg/m³),Mass concentration (μg/m³)
DateTimeUTC,F1_M11,P_M11,Q1_M11,Q2_M11,T1_M11,T2_M11,T3_M11,T4_M11,T5_M11,U1_M11,ZSPAN_M11,X0_M11,X2_M11,X1_M11
2022-09-02 22:00:00,,0829.8,5.01,0.00,29.3,27.8,00.0,37.9,31.2,17.1,-000.0,0019.94,0008.42,0007.06
2022-09-02 22:01:00,,0829.8,4.99,0.00,29.4,28.1,00.0,37.9,31.3,17.1,0000.0,0019.21,0008.42,0007.07
2022-09-02 22:02:00,,0829.8,5.00,0.00,29.4,27.9,00.0,37.9,31.3,17.0,0000.0,0019.36,0008.46,0007.08
2022-09-02 22:03:00,,0829.8,5.00,0.00,29.4,26.8,00.0,37.9,31.2,17.1,0000.0,0018.82,0008.51,0007.13
2022-09-02 22:04:00,,0829.7,5.00,0.00,29.3,26.5,00.0,37.9,31.1,17.5,0000.0,0018.85,0008.53,0007.18
2022-09-02 22:05:00,,0829.8,5.00,0.00,29.3,26.8,00.0,37.9,31.2,17.2,0000.0,0018.29,0008.53,0007.21
2022-09-02 22:06:00,,0829.8,5.00,0.00,29.3,27.1,00.0,37.9,31.1,17.0,0000.0,0018.54,0008.54,0007.26
2022-09-02 22:07:00,,0829.8,5.00,0.00,29.3,27.4,00.0,37.9,31.1,17.0,0000.0,0019.55,0008.59,0007.29
2022-09-02 22:08:00,,0829.8,5.00,0.00,29.3,27.7,00.0,37.9,31.1,16.9,0000.0,0018.68,0008.63,0007.32
2022-09-02 22:09:00,,0829.8,5.00,0.00,29.4,28.0,00.0,37.9,31.2,17.0,0000.0,0018.31,0008.70,0007.35
2022-09-02 22:10:00,,0829.8,4.98,0.00,29.4,28.1,00.0,37.9,31.3,17.0,0000.0,0019.19,0008.74,0007.39
2022-09-02 22:11:00,,0829.8,5.01,0.00,29.4,27.4,00.0,38.0,31.3,17.1,0000.0,0019.45,0008.76,0007.42
2022-09-02 22:12:00,,0829.7,5.00,0.00,29.4,26.5,00.0,38.0,31.2,17.4,0000.0,0019.74,0008.79,0007.44
2022-09-02 22:13:00,,0829.7,4.99,0.00,29.3,26.7,00.0,37.9,31.2,17.2,0000.0,0020.65,0008.79,0007.46
2022-09-02 22:14:00,,0829.7,5.01,0.00,29.3,27.0,00.0,37.9,31.1,17.2,0000.0,0021.57,0008.81,0007.46
2022-09-02 22:15:00,,0829.8,4.99,0.00,29.3,27.2,00.0,37.9,31.1,17.3,0000.0,0022.87,0008.88,0007.44
2022-09-02 22:16:00,,0829.8,5.00,0.00,29.3,27.6,00.0,37.9,31.1,17.5,0000.0,0023.01,0008.91,0007.44
2022-09-02 22:17:00,,0829.8,5.01,0.00,29.4,27.9,00.0,37.9,31.2,17.4,0000.0,0023.45,0008.94,0007.43
2022-09-02 22:18:00,,0829.7,4.98,0.00,29.4,28.1,00.0,37.9,31.3,17.6,0000.0,0022.35,0008.94,0007.42
2022-09-02 22:19:00,,0829.8,5.00,0.00,29.5,28.0,00.0,38.0,31.3,17.1,0000.0,0022.03,0008.89,0007.39
2022-09-02 22:20:00,,0829.7,5.01,0.00,29.4,26.9,00.0,38.0,31.3,16.9,0000.6,0022.10,0008.83,0007.37
2022-09-02 22:21:00,,0829.7,5.00,0.00,29.4,26.6,00.0,38.0,31.2,17.1,0000.9,0021.28,0008.77,0007.33
2022-09-02 22:22:00,,0829.7,4.99,0.00,29.4,26.9,00.0,38.0,31.2,17.3,0000.0,0020.92,0008.75,0007.31
2022-09-02 22:23:00,,0829.7,5.01,0.00,29.3,27.2,00.0,37.9,31.1,17.4,0000.0,0020.84,0008.68,0007.30
2022-09-02 22:24:00,,0829.7,5.00,0.00,29.3,27.5,00.0,37.9,31.1,17.0,0000.0,0020.46,0008.66,0007.29
2022-09-02 22:25:00,,0829.7,5.00,0.00,29.4,27.8,00.0,37.9,31.2,17.1,0000.0,0019.10,0008.61,0007.25
2022-09-02 22:26:00,,0829.7,5.01,0.00,29.4,28.0,00.0,38.0,31.3,17.4,0000.0,0018.29,0008.52,0007.22
2022-09-02 22:27:00,,0829.7,4.98,0.00,29.5,28.2,00.0,38.0,31.4,17.4,0000.0,0018.19,0008.48,0007.20
2022-09-02 22:28:00,,0829.7,5.00,0.00,29.5,27.6,00.0,38.0,31.4,17.7,0000.0,0017.56,0008.42,0007.20
2022-09-02 22:29:00,,0829.7,5.01,0.00,29.4,26.6,00.0,38.0,31.2,17.5,0001.7,0017.97,0008.43,0007.21
2022-09-02 22:30:00,,0829.7,5.00,0.00,29.4,26.7,00.0,38.0,31.2,17.4,0000.6,0018.19,0008.48,0007.21
2022-09-02 22:31:00,,0829.6,5.00,0.00,29.4,27.0,00.0,38.0,31.2,17.6,0000.9,0018.50,0008.54,0007.23
2022-09-02 22:32:00,,0829.6,5.00,0.00,29.4,27.3,00.0,38.0,31.2,17.7,0002.5,0019.74,0008.63,0007.26
2022-09-02 22:33:00,,0829.7,5.01,0.00,29.4,27.6,00.0,38.0,31.2,17.0,0002.3,0020.00,0008.68,0007.29
2022-09-02 22:34:00,,0829.6,5.01,0.00,29.4,27.9,00.0,38.0,31.3,17.0,0002.0,0020.06,0008.69,0007.31
2022-09-02 22:35:00,,0829.7,4.99,0.00,29.4,28.1,00.0,38.0,31.3,17.1,0001.6,0019.49,0008.70,0007.33
2022-09-02 22:36:00,,0829.8,5.00,0.00,29.5,28.1,00.0,38.0,31.4,17.5,0001.3,0020.34,0008.77,0007.37
2022-09-02 22:37:00,,0829.7,5.01,0.00,29.5,27.0,00.0,38.0,31.2,17.3,0001.4,0019.68,0008.79,0007.41
2022-09-02 22:38:00,,0829.7,5.00,0.00,29.4,26.5,00.0,38.0,31.2,17.1,0001.8,0019.36,0008.79,0007.44
2022-09-02 22:39:00,,0829.6,5.01,0.00,29.4,26.8,00.0,38.0,31.2,17.0,0002.0,0019.37,0008.83,0007.46
2022-09-02 22:40:00,,0829.6,4.99,0.00,29.4,27.1,00.0,38.0,31.1,17.0,0001.4,0018.88,0008.81,0007.47
2022-09-02 22:41:00,,0829.6,5.00,0.00,29.4,27.4,00.0,38.0,31.1,17.0,0001.6,0018.65,0008.77,0007.49
2022-09-02 22:42:00,,0829.6,5.00,0.00,29.4,27.7,00.0,38.0,31.2,17.0,0001.2,0019.11,0008.78,0007.50
2022-09-02 22:43:00,,0829.9,5.00,0.00,29.4,28.0,00.0,38.0,31.3,17.0,0000.0,0018.41,0008.82,0007.49
2022-09-02 22:44:00,,0829.7,5.01,0.00,29.5,28.2,00.0,38.0,31.4,17.3,0000.0,0018.20,0008.81,0007.48
2022-09-02 22:45:00,,0829.8,4.98,0.00,29.5,27.6,00.0,38.0,31.4,17.4,0000.0,0018.36,0008.83,0007.48
2022-09-02 22:46:00,,0829.6,5.01,0.00,29.5,26.6,00.0,38.0,31.2,17.2,0001.2,0018.63,0008.85,0007.47
2022-09-02 22:47:00,,0829.6,4.98,0.00,29.4,26.6,00.0,38.0,31.3,17.0,0000.1,0018.14,0008.84,0007.47
2022-09-02 22:48:00,,0829.6,5.01,0.00,29.4,27.0,00.0,38.0,31.2,17.2,0000.0,0018.79,0008.88,0007.45
2022-09-02 22:49:00,,0829.7,5.00,0.00,29.4,27.3,00.0,38.0,31.1,17.3,0000.0,0019.18,0008.95,0007.44
2022-09-02 22:50:00,,0829.7,5.00,0.00,29.4,27.6,00.0,38.0,31.2,17.2,0000.0,0019.03,0009.01,0007.43
2022-09-02 22:51:00,,0829.7,5.01,0.00,29.4,27.9,00.0,38.0,31.3,17.3,0000.0,0019.17,0009.01,0007.42
2022-09-02 22:52:00,,0829.7,4.99,0.00,29.5,28.1,00.0,38.0,31.4,17.4,0000.0,0019.48,0009.04,0007.41
2022-09-02 22:53:00,,0829.7,5.00,0.00,29.5,28.1,00.0,38.0,31.4,17.5,0000.4,0019.45,0009.01,0007.40
2022-09-02 22:54:00,,0829.7,4.99,0.00,29.5,27.1,00.0,38.1,31.3,17.3,0001.1,0019.46,0008.91,0007.39
2022-09-02 22:55:00,,0829.7,5.00,0.00,29.4,26.5,00.0,38.0,31.2,17.2,0000.0,0020.58,0008.89,0007.38
2022-09-02 22:56:00,,0829.6,5.01,0.00,29.4,26.8,00.0,38.0,31.2,17.2,0000.0,0020.48,0008.89,0007.37
2022-09-02 22:57:00,,0829.6,4.99,0.00,29.4,27.1,00.0,38.0,31.1,17.0,0000.0,0020.18,0008.86,0007.34
2022-09-02 22:58:00,,0829.6,5.01,0.00,29.4,27.4,00.0,38.0,31.1,16.9,0000.0,0021.39,0008.84,0007.31
2022-09-02 22:59:00,,0829.6,5.01,0.00,29.4,27.7,00.0,38.0,31.2,16.8,0000.0,0021.08,0008.80,0007.28
